[[{"header":{"parameterUnit":"m.s-1","parameterCategory":2,"la1":30.2991,"la2":30.254,"lo1":-89.0895,"lo2":-89.0444,"dy":0.0017,"dx":0.0017,"nx":28,"ny":28,"refTime":"2026-02-07T09:00:00:Z","depth":"0","parameterNumber":2,"parameterNumberName":"U-component_of_CURRENTS"},"data":[0,0,0,0,0,0,0,0,0,0,0,0,0,0,0,0,0,0,0,0,0,0,0,0,0,0,0,0,0,0,0,0,0,0,0,0,0,0,0,0,0,0,0,0,0,0,0,0,0,0,0,0,0,0,0,0,0,0,-0.2552,-0.2553,0,-0.2623,-0.2623,-0.2624,-0.2671,-0.2672,-0.2673,-0.2673,-0.2713,-0.2713,-0.2714,0,0,0,0,0,0,0,0,0,0,0,0,0,-0.2481,-0.2481,-0.2552,-0.2553,-0.2554,-0.2623,-0.2623,-0.2624,-0.2671,-0.2672,-0.2673,-0.2673,-0.2713,-0.2713,-0.2714,0,0,0,0,0,0,0,0,0,0,0,0,0,-0.2525,-0.2482,-0.2552,-0.2588,-0.2592,-0.2623,-0.2623,-0.2624,-0.2671,-0.2672,-0.2673,-0.2674,-0.2712,-0.2713,-0.2714,-0.2703,0,0,-0.2716,-0.2717,0,0,0,0,0,0,0,0,-0.2523,-0.2527,-0.2582,-0.2585,-0.259,-0.2641,-0.2613,-0.265,-0.2671,-0.2639,-0.2673,-0.2674,-0.2687,-0.269,-0.2698,-0.2704,-0.2706,-0.2717,-0.2717,-0.2717,-0.2718,0,0,0,0,0,0,0,-0.2519,-0.2525,-0.2578,-0.2583,-0.2588,-0.2608,-0.2615,-0.262,-0.2655,-0.2641,-0.2646,-0.2657,-0.2689,-0.2697,-0.27,-0.2707,-0.2717,-0.2717,-0.2718,-0.2718,-0.2687,-0.2685,0,0,0,0,0,0,-0.2513,-0.2522,-0.2576,-0.258,-0.256,-0.2609,-0.2617,-0.2622,-0.2656,-0.2663,-0.2656,-0.2659,-0.2696,-0.2699,-0.2701,-0.2663,-0.2717,-0.2718,-0.2719,-0.2688,-0.2686,-0.2685,0,0,0,0,0,0,-0.2511,-0.2517,-0.2573,-0.2555,-0.2564,-0.2609,-0.2615,-0.2623,-0.2633,-0.2668,-0.2674,-0.2659,-0.2696,-0.27,-0.2698,-0.2666,-0.2719,-0.2719,-0.2689,-0.2687,-0.2686,-0.2604,0,0,0,0,0,0,-0.2509,-0.2516,-0.2506,-0.2554,-0.2565,-0.2574,-0.2615,-0.2624,-0.264,-0.2644,-0.2671,-0.2676,-0.2697,-0.2696,-0.2698,-0.2668,-0.272,-0.2691,-0.2689,-0.2686,-0.2608,-0.2599,-0.2591,0,0,0,0,0,-0.2506,-0.2481,-0.2505,-0.2511,-0.2553,-0.2573,-0.2579,-0.2614,-0.2639,-0.2628,-0.2653,-0.2676,-0.2682,-0.2696,-0.2699,-0.2668,-0.2692,-0.2689,-0.2686,-0.2612,-0.2601,-0.2592,0,0,0,0,0,0,-0.2431,-0.2486,-0.2512,-0.2502,-0.2532,-0.2582,-0.2572,-0.2607,-0.262,-0.2624,-0.2662,-0.2667,-0.2654,-0.2671,-0.2685,-0.2651,-0.2689,-0.2687,-0.2631,-0.2621,-0.2613,-0.2613,-0.2721,0,0,0,0,0,-0.2415,-0.2416,-0.2471,-0.246,-0.2473,-0.2525,-0.2536,-0.2566,-0.2592,-0.2599,-0.2623,-0.264,-0.2643,-0.2641,-0.2651,-0.2629,-0.2631,-0.261,-0.2602,-0.2595,-0.2596,-0.2563,-0.2551,-0.2675,-0.2675,-0.2675,0,0,-0.2381,-0.2412,-0.241,-0.2445,-0.2471,-0.248,-0.2531,-0.2542,-0.2548,-0.2599,-0.2597,-0.2615,-0.2633,-0.2613,-0.2607,-0.2622,-0.2557,-0.2591,-0.2585,-0.259,-0.2558,-0.2546,-0.2535,-0.2673,-0.2673,-0.2674,0,0,-0.232,-0.2343,-0.2331,-0.2357,-0.2399,-0.2431,-0.2434,-0.2484,-0.2499,-0.2505,-0.254,-0.2536,-0.2549,-0.255,-0.2553,-0.2502,-0.2519,-0.2505,-0.2455,-0.2422,-0.2411,-0.2402,-0.2373,-0.2362,-0.2494,-0.2494,-0.2494,0,-0.2282,-0.2283,-0.2325,-0.2329,-0.2345,-0.2408,-0.2404,-0.2423,-0.2465,-0.2471,-0.249,-0.2497,-0.2515,-0.2485,-0.2474,-0.2482,-0.2472,-0.2491,-0.241,-0.2401,-0.2393,-0.2366,-0.2354,-0.2489,-0.249,-0.249,-0.2491,0,-0.2228,-0.2232,-0.2222,-0.2255,-0.2268,-0.2272,-0.232,-0.2333,-0.2364,-0.2388,-0.2375,-0.2392,-0.24,-0.2394,-0.2423,-0.2373,-0.2386,-0.2407,-0.2434,-0.2375,-0.235,-0.234,-0.2483,-0.2485,-0.2486,-0.2487,0,0,-0.2154,-0.2182,-0.2182,-0.2197,-0.2237,-0.2251,-0.2248,-0.227,-0.2286,-0.2289,-0.2286,-0.2275,-0.2296,-0.2301,-0.2322,-0.2292,-0.2227,-0.2326,-0.2326,-0.2294,-0.2151,-0.2184,-0.2176,-0.2232,-0.2231,-0.2229,-0.215,0,-0.211,-0.2102,-0.2124,-0.212,-0.2128,-0.218,-0.2182,-0.2207,-0.2233,-0.2245,-0.2236,-0.2242,-0.2255,-0.2265,-0.2229,-0.2249,-0.22,-0.2247,-0.2216,-0.2215,-0.2248,-0.2165,-0.2169,-0.2102,-0.2141,-0.2139,-0.2138,0,-0.2065,-0.2072,-0.2055,-0.209,-0.2098,-0.21,-0.2138,-0.2147,-0.2169,-0.2189,-0.2172,-0.2193,-0.2157,-0.2184,-0.2124,-0.2155,-0.2142,-0.2138,-0.2136,-0.2192,-0.2229,-0.217,-0.2082,-0.2032,-0.2123,-0.2124,-0.2125,0,-0.2023,-0.2032,-0.2019,-0.203,-0.2068,-0.2071,-0.209,-0.2123,-0.2144,-0.2152,-0.2172,-0.2128,-0.2131,-0.2083,-0.209,-0.2103,-0.2032,-0.2048,-0.2046,-0.2048,-0.206,-0.2067,-0.1921,-0.1978,-0.1979,-0.1979,-0.1979,0,-0.1984,-0.1977,-0.2003,-0.2004,-0.2008,-0.204,-0.2051,-0.2078,-0.211,-0.2136,-0.2137,-0.2156,-0.211,-0.2085,-0.2062,-0.2026,-0.1998,-0.2019,-0.2022,-0.2031,-0.2036,-0.2005,-0.2051,-0.1976,-0.1976,-0.1977,-0.1978,0,-0.193,-0.1949,-0.1945,-0.1975,-0.1989,-0.1988,-0.2037,-0.2057,-0.2092,-0.2127,-0.213,-0.2158,-0.2144,-0.2096,-0.2043,-0.2008,-0.1949,-0.1956,-0.1976,-0.1982,-0.1944,-0.1988,-0.1881,-0.1853,-0.1922,-0.1922,-0.1923,0,-0.189,-0.1883,-0.1916,-0.1925,-0.1934,-0.1952,-0.1979,-0.2034,-0.2066,-0.2144,-0.2161,-0.2172,-0.2219,-0.2141,-0.2081,-0.2008,-0.1965,-0.1934,-0.1956,-0.192,-0.197,-0.1951,-0.1934,-0.1926,-0.1926,-0.1926,-0.1926,0,-0.1812,-0.1829,-0.1831,-0.1859,-0.1884,-0.1921,-0.1964,-0.2,-0.2081,-0.2143,-0.2236,-0.2289,-0.227,-0.2225,-0.2123,-0.2069,-0.1922,-0.1937,-0.1878,-0.1942,-0.1933,-0.1916,-0.2004,-0.1928,-0.1928,-0.1927,-0.1927,-0.1927,-0.1743,-0.1733,-0.1754,-0.1768,-0.1823,-0.1886,-0.1884,-0.1981,-0.2063,-0.214,-0.2247,-0.2294,-0.227,-0.2175,-0.212,-0.1963,-0.1987,-0.1877,-0.1925,-0.1897,-0.1896,-0.1998,-0.195,-0.195,-0.1949,-0.1949,-0.1949,0,-0.1644,-0.165,-0.1665,-0.1702,-0.1744,-0.1795,-0.1868,-0.1876,-0.1969,-0.2066,-0.2163,-0.2207,-0.2173,-0.2094,-0.1996,-0.1939,-0.1873,-0.1861,-0.1812,-0.1788,-0.1841,-0.1866,-0.1824,-0.1824,-0.1824,-0.1824,-0.1824,-0.1824,-0.1594,-0.1567,-0.1579,-0.1605,-0.1644,-0.166,-0.168,-0.1743,-0.1786,-0.1873,-0.1908,-0.1989,-0.1972,-0.2092,-0.1984,-0.1902,-0.1817,-0.1807,-0.1768,-0.1801,-0.1804,-0.1807,-0.1831,-0.1783,-0.1783,-0.1642,-0.1642,-0.1641]},{"header":{"parameterUnit":"m.s-1","parameterCategory":2,"la1":30.2991,"la2":30.254,"lo1":-89.0895,"lo2":-89.0444,"dy":0.0017,"dx":0.0017,"nx":28,"ny":28,"refTime":"2026-02-07T09:00:00:Z","depth":"0","parameterNumber":3,"parameterNumberName":"V-component_of_CURRENTS"},"data":[0,0,0,0,0,0,0,0,0,0,0,0,0,0,0,0,0,0,0,0,0,0,0,0,0,0,0,0,0,0,0,0,0,0,0,0,0,0,0,0,0,0,0,0,0,0,0,0,0,0,0,0,0,0,0,0,0,0,-0.0232,-0.0231,0,-0.0145,-0.0144,-0.0143,-0.0111,-0.0111,-0.0111,-0.0112,-0.0045,-0.0043,-0.0041,0,0,0,0,0,0,0,0,0,0,0,0,0,-0.0288,-0.0288,-0.0232,-0.0231,-0.023,-0.0146,-0.0144,-0.0143,-0.0111,-0.0111,-0.0112,-0.0112,-0.0046,-0.0043,-0.0041,0,0,0,0,0,0,0,0,0,0,0,0,0,-0.0238,-0.0288,-0.0232,-0.0205,-0.0201,-0.0146,-0.0144,-0.0143,-0.011,-0.0111,-0.0112,-0.0112,-0.0047,-0.0043,-0.004,-0.0009,0,0,-0.003,-0.0029,0,0,0,0,0,0,0,0,-0.0241,-0.0236,-0.021,-0.0207,-0.0203,-0.0141,-0.014,-0.0099,-0.011,-0.0144,-0.0112,-0.0112,-0.0079,-0.0073,-0.0054,-0.0006,-0.0003,-0.003,-0.0028,-0.0027,-0.0026,0,0,0,0,0,0,0,-0.0245,-0.0239,-0.0196,-0.0209,-0.0204,-0.0169,-0.0163,-0.0131,-0.0109,-0.0141,-0.0139,-0.0131,-0.0077,-0.0057,-0.0052,-0.0002,-0.003,-0.0027,-0.0025,-0.0024,0.0084,0.0085,0,0,0,0,0,0,-0.0262,-0.0243,-0.0199,-0.0194,-0.0225,-0.0168,-0.0161,-0.0159,-0.0108,-0.0101,-0.013,-0.013,-0.0062,-0.0056,-0.005,-0.0011,-0.0027,-0.0024,-0.0022,0.0083,0.0084,0.0085,0,0,0,0,0,0,-0.0263,-0.0259,-0.0203,-0.0217,-0.0208,-0.0167,-0.0164,-0.0157,-0.0139,-0.0101,-0.0094,-0.0121,-0.0062,-0.0054,-0.0016,-0.0008,-0.0022,-0.0019,0.0082,0.0084,0.0085,0.0068,0,0,0,0,0,0,-0.0265,-0.026,-0.0259,-0.0219,-0.0208,-0.0174,-0.0164,-0.0155,-0.0134,-0.0132,-0.009,-0.0084,-0.0062,-0.0021,-0.0013,-0.0004,-0.0017,0.0081,0.0083,0.0084,0.0067,0.0069,0.007,0,0,0,0,0,-0.0268,-0.0261,-0.0259,-0.0254,-0.0209,-0.0174,-0.0165,-0.0137,-0.0133,-0.0123,-0.0091,-0.0086,-0.0004,-0.0017,-0.0008,0.0002,0.008,0.0082,0.0084,0.0067,0.0068,0.007,0,0,0,0,0,0,-0.027,-0.0256,-0.0253,-0.024,-0.0214,-0.0169,-0.0154,-0.0138,-0.0103,-0.0103,-0.007,-0.0061,-0.0026,-0.0005,-0.0021,0.004,0.0038,0.0042,0.0021,0.0023,0.0024,0.0015,-0.0014,0,0,0,0,0,-0.0275,-0.0276,-0.0249,-0.0237,-0.0229,-0.0194,-0.0175,-0.0159,-0.0124,-0.011,-0.0077,-0.0042,-0.0008,0.0011,0.0044,0.008,0.0089,0.0092,0.0094,0.0094,0.0094,0.0119,0.0122,0.0092,0.0092,0.0092,0,0,-0.027,-0.0263,-0.0261,-0.0239,-0.0217,-0.02,-0.0183,-0.0159,-0.0138,-0.0108,-0.0067,-0.0037,0.0003,0.0042,0.006,0.0059,0.0108,0.0097,0.0097,0.0097,0.0122,0.0125,0.0127,0.0094,0.0094,0.0093,0,0,-0.0261,-0.0259,-0.0259,-0.0243,-0.0221,-0.0201,-0.0199,-0.0159,-0.0137,-0.0096,-0.0069,-0.0032,0.0022,0.0055,0.0078,0.0108,0.0112,0.0115,0.0116,0.014,0.0142,0.0144,0.0152,0.0155,0.0117,0.0117,0.0117,0,-0.0253,-0.0258,-0.0248,-0.0241,-0.023,-0.0207,-0.0198,-0.0166,-0.0115,-0.0093,-0.0089,-0.0001,0.0029,0.0081,0.0092,0.0109,0.0116,0.0103,0.0139,0.0142,0.0144,0.0152,0.0155,0.0116,0.0117,0.0117,0.0117,0,-0.0248,-0.025,-0.0246,-0.0241,-0.0223,-0.0212,-0.0179,-0.0154,-0.0131,-0.0097,-0.0043,0.0005,0.0054,0.0072,0.0091,0.0129,0.0125,0.0134,0.0129,0.0145,0.0153,0.0157,0.0116,0.0116,0.0116,0.0116,0,0,-0.024,-0.0245,-0.0245,-0.0257,-0.0229,-0.0222,-0.0182,-0.0146,-0.0128,-0.0072,-0.0037,0.003,0.0051,0.0078,0.0109,0.0134,0.0155,0.0138,0.0139,0.0134,0.0194,0.0193,0.0197,0.0165,0.0166,0.0166,0.0189,0,-0.0242,-0.0257,-0.0243,-0.0249,-0.0258,-0.0225,-0.0197,-0.0157,-0.0116,-0.0073,-0.0014,0.0026,0.0055,0.007,0.0106,0.0148,0.0166,0.0147,0.0189,0.0191,0.0179,0.0203,0.0201,0.0222,0.0193,0.0193,0.0194,0,-0.0245,-0.0264,-0.0277,-0.0286,-0.0284,-0.0272,-0.0243,-0.0213,-0.0139,-0.0106,-0.0044,0.0003,0.0067,0.0074,0.0155,0.014,0.0162,0.0188,0.019,0.0198,0.0198,0.0205,0.023,0.028,0.02,0.0199,0.0199,0,-0.0281,-0.0288,-0.0313,-0.0313,-0.0306,-0.0297,-0.0286,-0.0224,-0.021,-0.0129,-0.0115,-0.0016,0.0011,0.0078,0.0147,0.0148,0.0219,0.0228,0.0245,0.0244,0.0258,0.0257,0.0328,0.0264,0.0264,0.0264,0.0264,0,-0.0302,-0.0322,-0.0338,-0.0356,-0.0382,-0.0349,-0.0352,-0.0315,-0.0266,-0.026,-0.0148,-0.0128,0.0008,0.0073,0.014,0.021,0.0216,0.0249,0.0256,0.0252,0.025,0.0306,0.0312,0.0265,0.0264,0.0264,0.0264,0,-0.0334,-0.0342,-0.0383,-0.0398,-0.0404,-0.0426,-0.0425,-0.0429,-0.0368,-0.0356,-0.0338,-0.0217,-0.0122,0.0007,0.0115,0.018,0.0285,0.027,0.0251,0.0256,0.0328,0.0332,0.0452,0.0435,0.0305,0.0305,0.0305,0,-0.0349,-0.0376,-0.0431,-0.0476,-0.0486,-0.0513,-0.0535,-0.0488,-0.0494,-0.0423,-0.043,-0.032,-0.024,-0.0055,0.0097,0.0235,0.0271,0.0291,0.03,0.0337,0.0349,0.0408,0.0387,0.0307,0.0307,0.0307,0.0307,0,-0.0386,-0.0411,-0.0453,-0.0556,-0.0602,-0.0646,-0.067,-0.0688,-0.0637,-0.0612,-0.0568,-0.0489,-0.0281,-0.0092,0.011,0.0187,0.0327,0.0296,0.035,0.037,0.0425,0.0409,0.0274,0.0309,0.0309,0.0308,0.0308,0.0308,-0.0415,-0.0466,-0.0545,-0.0642,-0.071,-0.0781,-0.0821,-0.0821,-0.0828,-0.0763,-0.0672,-0.0521,-0.0231,0.0073,0.0148,0.0331,0.0326,0.0387,0.0392,0.0452,0.0437,0.0295,0.033,0.033,0.033,0.033,0.033,0,-0.0456,-0.0532,-0.0633,-0.0754,-0.0862,-0.0863,-0.092,-0.0944,-0.096,-0.0817,-0.0724,-0.038,-0.0119,0.0125,0.0409,0.0464,0.047,0.0476,0.0557,0.0528,0.0419,0.0419,0.0457,0.0457,0.0457,0.0457,0.0457,0.0457,-0.0484,-0.0595,-0.0664,-0.0869,-0.0958,-0.1068,-0.1103,-0.1099,-0.102,-0.0804,-0.0573,-0.0393,0.0007,0.0502,0.0688,0.065,0.0647,0.0649,0.064,0.0566,0.0559,0.0552,0.0556,0.0622,0.0622,0.076,0.0761,0.0762]}],[{"header":{"parameterUnit":"m.s-1","parameterCategory":2,"la1":30.2991,"la2":30.254,"lo1":-89.0895,"lo2":-89.0444,"dy":0.0017,"dx":0.0017,"nx":28,"ny":28,"refTime":"2026-02-07T09:00:00:Z","depth":"2","parameterNumber":2,"parameterNumberName":"U-component_of_CURRENTS"},"data":[0,0,0,0,0,0,0,0,0,0,0,0,0,0,0,0,0,0,0,0,0,0,0,0,0,0,0,0,0,0,0,0,0,0,0,0,0,0,0,0,0,0,0,0,0,0,0,0,0,0,0,0,0,0,0,0,0,0,-0.25,-0.2501,0,-0.2564,-0.2564,-0.2565,-0.2597,-0.2597,-0.2598,-0.2598,-0.2635,-0.2636,-0.2636,0,0,0,0,0,0,0,0,0,0,0,0,0,-0.2437,-0.2437,-0.25,-0.2501,-0.2502,-0.2564,-0.2564,-0.2565,-0.2597,-0.2597,-0.2598,-0.2598,-0.2635,-0.2636,-0.2636,0,0,0,0,0,0,0,0,0,0,0,0,0,-0.2477,-0.2438,-0.25,-0.2527,-0.2531,-0.2564,-0.2564,-0.2565,-0.2597,-0.2597,-0.2598,-0.2598,-0.2634,-0.2635,-0.2637,-0.2637,0,0,-0.264,-0.2641,0,0,0,0,0,0,0,0,-0.2474,-0.2479,-0.2522,-0.2526,-0.2529,-0.2575,-0.2556,-0.2589,-0.2597,-0.257,-0.2598,-0.2598,-0.2614,-0.2616,-0.2625,-0.2639,-0.264,-0.264,-0.2641,-0.2641,-0.2642,0,0,0,0,0,0,0,-0.2471,-0.2476,-0.2523,-0.2523,-0.2528,-0.2547,-0.2552,-0.2562,-0.2587,-0.2572,-0.2575,-0.2585,-0.2615,-0.2624,-0.2626,-0.2641,-0.264,-0.2641,-0.2642,-0.2642,-0.2631,-0.2631,0,0,0,0,0,0,-0.2466,-0.2473,-0.2521,-0.2525,-0.2505,-0.2548,-0.2554,-0.2558,-0.2587,-0.2593,-0.2585,-0.2587,-0.2622,-0.2625,-0.2627,-0.2594,-0.2641,-0.2642,-0.2643,-0.2632,-0.2631,-0.263,0,0,0,0,0,0,-0.2464,-0.2469,-0.2519,-0.2503,-0.2511,-0.2548,-0.2553,-0.2559,-0.2569,-0.2598,-0.2603,-0.2589,-0.2622,-0.2626,-0.2628,-0.2597,-0.2643,-0.2644,-0.2634,-0.2632,-0.2631,-0.2549,0,0,0,0,0,0,-0.2462,-0.2468,-0.2459,-0.2502,-0.2512,-0.252,-0.2553,-0.256,-0.2576,-0.2578,-0.2602,-0.2606,-0.2622,-0.2626,-0.2629,-0.2599,-0.2645,-0.2635,-0.2633,-0.2631,-0.2553,-0.2545,-0.2538,0,0,0,0,0,-0.2459,-0.2435,-0.2458,-0.2464,-0.2501,-0.2519,-0.2525,-0.2552,-0.2575,-0.2565,-0.2588,-0.2605,-0.2616,-0.2626,-0.263,-0.26,-0.2636,-0.2633,-0.2631,-0.2556,-0.2547,-0.2538,0,0,0,0,0,0,-0.2384,-0.2438,-0.2464,-0.2453,-0.2481,-0.2525,-0.2515,-0.2549,-0.2561,-0.2564,-0.2597,-0.2602,-0.2592,-0.261,-0.262,-0.2592,-0.2627,-0.2625,-0.2569,-0.256,-0.2552,-0.2549,-0.2646,0,0,0,0,0,-0.2371,-0.2375,-0.2427,-0.2414,-0.2428,-0.2476,-0.2486,-0.2512,-0.2537,-0.2544,-0.2565,-0.2582,-0.2586,-0.2585,-0.2595,-0.258,-0.2581,-0.2562,-0.2555,-0.2548,-0.2548,-0.2516,-0.2505,-0.2623,-0.2623,-0.2623,0,0,-0.2334,-0.2367,-0.2366,-0.2401,-0.2424,-0.2433,-0.2481,-0.2491,-0.2497,-0.2544,-0.2542,-0.256,-0.2579,-0.2561,-0.2557,-0.257,-0.2513,-0.2546,-0.254,-0.2544,-0.2512,-0.2501,-0.2491,-0.2621,-0.2622,-0.2622,0,0,-0.2274,-0.2297,-0.2289,-0.2316,-0.2358,-0.2388,-0.2392,-0.2439,-0.2453,-0.2462,-0.2493,-0.249,-0.2506,-0.2504,-0.2508,-0.2466,-0.248,-0.2471,-0.2422,-0.239,-0.2379,-0.2371,-0.2344,-0.2334,-0.246,-0.246,-0.2459,0,-0.2226,-0.224,-0.2283,-0.229,-0.231,-0.2367,-0.2367,-0.2384,-0.2424,-0.243,-0.2447,-0.2457,-0.2474,-0.2447,-0.2436,-0.2447,-0.2438,-0.2452,-0.2378,-0.237,-0.2362,-0.2338,-0.2327,-0.2455,-0.2456,-0.2456,-0.2457,0,-0.2176,-0.2192,-0.2184,-0.2221,-0.2236,-0.2244,-0.2289,-0.2299,-0.2329,-0.2351,-0.2341,-0.2358,-0.2366,-0.2361,-0.2389,-0.2341,-0.2356,-0.2375,-0.2397,-0.2345,-0.2323,-0.2313,-0.2449,-0.2451,-0.2452,-0.2453,0,0,-0.2049,-0.2137,-0.2132,-0.2167,-0.2212,-0.2227,-0.2223,-0.2244,-0.2261,-0.2258,-0.2261,-0.2246,-0.2265,-0.2271,-0.2292,-0.2264,-0.2201,-0.2296,-0.2296,-0.2263,-0.213,-0.2159,-0.2152,-0.2206,-0.2204,-0.2202,-0.2131,0,-0.1997,-0.2028,-0.2072,-0.2086,-0.211,-0.2164,-0.217,-0.2192,-0.2217,-0.223,-0.2216,-0.2227,-0.2226,-0.2242,-0.2201,-0.2224,-0.2175,-0.2219,-0.2192,-0.2192,-0.2219,-0.2142,-0.1887,-0.1804,-0.2122,-0.2121,-0.212,0,-0.1919,-0.197,-0.1988,-0.2079,-0.209,-0.2096,-0.214,-0.2154,-0.2171,-0.2193,-0.2169,-0.219,-0.2149,-0.2171,-0.2103,-0.2133,-0.2118,-0.2117,-0.2114,-0.2167,-0.2204,-0.1912,-0.1775,-0.2104,-0.2105,-0.2106,-0.2107,0,-0.1827,-0.1901,-0.1927,-0.1952,-0.2046,-0.2056,-0.2093,-0.2127,-0.2154,-0.2166,-0.2195,-0.2139,-0.2153,-0.2086,-0.2089,-0.2092,-0.2035,-0.2036,-0.2029,-0.2032,-0.1824,-0.1812,-0.1965,-0.1965,-0.1965,-0.1966,-0.1966,0,-0.1753,-0.1766,-0.1898,-0.1909,-0.1946,-0.2019,-0.2041,-0.2077,-0.2128,-0.2156,-0.2169,-0.2187,-0.2139,-0.2119,-0.2072,-0.2027,-0.2005,-0.2004,-0.2007,-0.179,-0.1777,-0.2057,-0.2069,-0.1963,-0.1964,-0.1964,-0.1965,0,-0.1618,-0.1707,-0.1742,-0.1859,-0.1898,-0.1911,-0.2015,-0.2043,-0.2111,-0.2149,-0.2156,-0.221,-0.2196,-0.2153,-0.2092,-0.2038,-0.1977,-0.1969,-0.1733,-0.1711,-0.199,-0.1999,-0.1913,-0.1914,-0.1914,-0.1914,-0.1914,0,-0.1551,-0.156,-0.1681,-0.1721,-0.1767,-0.1829,-0.1879,-0.1988,-0.2031,-0.216,-0.2173,-0.222,-0.2189,-0.2121,-0.1985,-0.1861,-0.2006,-0.168,-0.164,-0.1969,-0.1981,-0.1989,-0.1996,-0.1308,-0.1304,-0.13,-0.1297,0,-0.1412,-0.1449,-0.1492,-0.1589,-0.1652,-0.1743,-0.1832,-0.1872,-0.2007,-0.2045,-0.2115,-0.2102,-0.2036,-0.1813,-0.1732,-0.1639,-0.1672,-0.1605,-0.1951,-0.141,-0.1406,-0.1417,-0.1441,-0.1261,-0.1265,-0.1267,-0.1269,-0.1271,-0.1286,-0.1289,-0.1367,-0.144,-0.154,-0.1651,-0.1667,-0.1756,-0.1803,-0.1779,-0.1892,-0.1772,-0.1687,-0.1393,-0.1351,-0.1353,-0.1437,-0.1391,-0.1398,-0.141,-0.1401,-0.1403,-0.1255,-0.1258,-0.1261,-0.1263,-0.1265,0,-0.1153,-0.1182,-0.1236,-0.134,-0.1411,-0.1519,-0.1632,-0.1586,-0.1566,-0.1527,-0.145,-0.1188,-0.103,-0.1086,-0.0954,-0.095,-0.0875,-0.1024,-0.0894,-0.0925,-0.0953,-0.092,-0.0646,-0.0646,-0.0646,-0.0646,0,0,-0.1086,-0.1086,-0.1128,-0.1195,-0.1278,-0.1321,-0.1362,-0.1283,-0.1236,-0.1015,-0.0903,-0.0761,-0.0909,-0.07,-0.0676,-0.0688,-0.0813,-0.0661,-0.1122,-0.0989,-0.1018,-0.1096,-0.1072,0,0,0,0,0]},{"header":{"parameterUnit":"m.s-1","parameterCategory":2,"la1":30.2991,"la2":30.254,"lo1":-89.0895,"lo2":-89.0444,"dy":0.0017,"dx":0.0017,"nx":28,"ny":28,"refTime":"2026-02-07T09:00:00:Z","depth":"2","parameterNumber":3,"parameterNumberName":"V-component_of_CURRENTS"},"data":[0,0,0,0,0,0,0,0,0,0,0,0,0,0,0,0,0,0,0,0,0,0,0,0,0,0,0,0,0,0,0,0,0,0,0,0,0,0,0,0,0,0,0,0,0,0,0,0,0,0,0,0,0,0,0,0,0,0,-0.0138,-0.0137,0,-0.0042,-0.004,-0.0039,0.0015,0.0015,0.0015,0.0015,0.0095,0.0098,0.01,0,0,0,0,0,0,0,0,0,0,0,0,0,-0.0198,-0.0198,-0.0138,-0.0137,-0.0136,-0.0042,-0.004,-0.0039,0.0015,0.0015,0.0015,0.0015,0.0095,0.0097,0.01,0,0,0,0,0,0,0,0,0,0,0,0,0,-0.0143,-0.0198,-0.0138,-0.0099,-0.0095,-0.0042,-0.004,-0.0038,0.0015,0.0015,0.0015,0.0015,0.0094,0.0097,0.01,0.012,0,0,0.011,0.0111,0,0,0,0,0,0,0,0,-0.0146,-0.014,-0.0106,-0.0102,-0.0097,-0.0027,-0.0032,0.0013,0.0015,-0.0025,0.0015,0.0015,0.0052,0.0059,0.0079,0.0124,0.0127,0.011,0.0112,0.0114,0.0114,0,0,0,0,0,0,0,-0.015,-0.0144,-0.0098,-0.0105,-0.0099,-0.006,-0.0053,-0.0023,0.0013,-0.0021,-0.0018,-0.001,0.0054,0.0076,0.0082,0.0128,0.011,0.0113,0.0115,0.0116,0.0203,0.0203,0,0,0,0,0,0,-0.017,-0.0148,-0.0101,-0.0095,-0.0124,-0.0059,-0.0051,-0.0048,0.0013,0.0023,-0.001,-0.0008,0.0071,0.0078,0.0085,0.0118,0.0114,0.0117,0.0118,0.0202,0.0203,0.0203,0,0,0,0,0,0,-0.0171,-0.0167,-0.0105,-0.012,-0.011,-0.0059,-0.0056,-0.0046,-0.0025,0.0022,0.0031,0.0001,0.0071,0.008,0.0114,0.0121,0.0118,0.0121,0.0202,0.0203,0.0203,0.0179,0,0,0,0,0,0,-0.0174,-0.0168,-0.0168,-0.0122,-0.011,-0.0077,-0.0055,-0.0044,-0.0021,-0.0017,0.0034,0.0042,0.0072,0.0109,0.0117,0.0125,0.0123,0.0202,0.0202,0.0203,0.018,0.0179,0.0178,0,0,0,0,0,-0.0176,-0.0174,-0.0169,-0.0163,-0.0114,-0.0077,-0.0067,-0.0029,-0.0021,-0.001,0.0025,0.0041,0.0119,0.0112,0.0122,0.013,0.0201,0.0202,0.0203,0.018,0.0179,0.0178,0,0,0,0,0,0,-0.0188,-0.0167,-0.0161,-0.015,-0.012,-0.0069,-0.0054,-0.0033,0.0005,0.0006,0.0048,0.0058,0.009,0.0113,0.0104,0.0157,0.0162,0.0165,0.0141,0.0141,0.014,0.0134,0.0126,0,0,0,0,0,-0.0196,-0.0196,-0.0164,-0.0154,-0.0145,-0.0103,-0.0083,-0.0061,-0.0023,-0.0006,0.0031,0.0068,0.0102,0.0122,0.0155,0.0184,0.0197,0.0196,0.0195,0.0194,0.0196,0.022,0.0222,0.0206,0.0206,0.0206,0,0,-0.0198,-0.0186,-0.0185,-0.0158,-0.0133,-0.0116,-0.009,-0.0065,-0.0044,-0.0005,0.0035,0.0066,0.0109,0.0144,0.016,0.0164,0.0204,0.0195,0.0194,0.0196,0.0221,0.0223,0.0224,0.0207,0.0207,0.0206,0,0,-0.0205,-0.0193,-0.02,-0.0177,-0.015,-0.0124,-0.0122,-0.0077,-0.0051,-0.0014,0.0019,0.0055,0.0108,0.0145,0.0168,0.0184,0.0198,0.019,0.0186,0.021,0.0211,0.0212,0.0219,0.0222,0.0192,0.0192,0.0192,0,-0.0209,-0.0214,-0.0192,-0.0185,-0.0172,-0.0133,-0.0131,-0.0092,-0.0038,-0.0018,-0.0008,0.0077,0.0111,0.0159,0.0167,0.0183,0.019,0.0184,0.0208,0.021,0.0212,0.0219,0.0221,0.0191,0.0191,0.0191,0.0191,0,-0.0225,-0.0221,-0.0219,-0.0207,-0.0185,-0.0175,-0.0131,-0.0104,-0.0076,-0.0035,0.0015,0.0068,0.0118,0.0135,0.0158,0.0192,0.0189,0.02,0.0206,0.0211,0.0219,0.0222,0.0189,0.019,0.019,0.019,0,0,-0.0253,-0.024,-0.0237,-0.0239,-0.0201,-0.0186,-0.0154,-0.0115,-0.0103,-0.0033,-0.0012,0.0069,0.0099,0.0127,0.0163,0.0189,0.0207,0.0197,0.0199,0.0198,0.0244,0.026,0.0265,0.0219,0.0219,0.022,0.024,0,-0.0277,-0.0287,-0.0268,-0.0263,-0.0264,-0.0221,-0.0196,-0.0149,-0.0111,-0.0076,0.0,0.0038,0.0097,0.0107,0.0151,0.0197,0.0216,0.02,0.0246,0.0247,0.0255,0.027,0.018,0.0193,0.0243,0.0244,0.0244,0,-0.0298,-0.0305,-0.0317,-0.0306,-0.0303,-0.0288,-0.026,-0.0234,-0.0165,-0.0136,-0.0069,-0.0017,0.0063,0.0084,0.019,0.0175,0.0205,0.0236,0.0238,0.0265,0.027,0.0199,0.0197,0.025,0.0249,0.0249,0.0248,0,-0.0333,-0.0335,-0.0353,-0.0345,-0.0323,-0.0317,-0.0303,-0.0248,-0.0231,-0.0174,-0.0159,-0.0055,-0.0013,0.0065,0.0165,0.0169,0.0251,0.0263,0.0304,0.0304,0.0245,0.0239,0.0306,0.0306,0.0306,0.0306,0.0306,0,-0.0361,-0.0366,-0.0372,-0.0374,-0.0391,-0.0359,-0.0363,-0.0332,-0.0297,-0.0276,-0.0189,-0.0148,-0.0019,0.0057,0.014,0.0247,0.0242,0.0307,0.0317,0.0234,0.0228,0.0294,0.0292,0.0306,0.0306,0.0306,0.0306,0,-0.0371,-0.0381,-0.0394,-0.0397,-0.0402,-0.0405,-0.0398,-0.0403,-0.0362,-0.034,-0.0322,-0.0212,-0.0094,0.0022,0.0136,0.0211,0.0302,0.0323,0.0214,0.0213,0.0339,0.0336,0.038,0.0381,0.0382,0.0383,0.0383,0,-0.037,-0.0384,-0.0409,-0.043,-0.0429,-0.044,-0.0454,-0.043,-0.0431,-0.0362,-0.0353,-0.0245,-0.0123,0.0062,0.0148,0.0276,0.0313,0.0272,0.0279,0.0345,0.035,0.0346,0.0342,0.0178,0.0177,0.0176,0.0175,0,-0.0361,-0.0374,-0.039,-0.0447,-0.0473,-0.0509,-0.0521,-0.053,-0.0499,-0.0451,-0.0365,-0.0259,-0.0103,0.0025,0.0166,0.0229,0.0256,0.0259,0.0348,0.0186,0.016,0.0163,0.0165,0.0166,0.0167,0.0168,0.0168,0.0169,-0.0342,-0.0362,-0.0404,-0.0457,-0.0513,-0.0576,-0.0599,-0.0585,-0.0564,-0.0504,-0.041,-0.0272,-0.0185,0.0007,0.0134,0.0219,0.0224,0.0242,0.0242,0.0244,0.023,0.0208,0.0219,0.0221,0.0222,0.0222,0.0223,0,-0.0317,-0.0361,-0.0417,-0.0499,-0.0589,-0.0607,-0.0653,-0.064,-0.0599,-0.0535,-0.0438,-0.0328,-0.019,-0.0044,0.0066,0.0169,0.015,0.0209,0.0149,0.0154,0.0159,0.0141,0.0107,0.0108,0.0109,0.011,0,0,-0.0304,-0.036,-0.0412,-0.0558,-0.063,-0.0726,-0.0757,-0.0681,-0.0628,-0.0515,-0.0452,-0.0437,-0.024,-0.019,-0.0076,0.004,0.0082,0.0047,0.0109,0.0023,0.0029,0.0125,0.0096,0,0,0,0,0]}],[{"header":{"parameterUnit":"m.s-1","parameterCategory":2,"la1":30.2991,"la2":30.254,"lo1":-89.0895,"lo2":-89.0444,"dy":0.0017,"dx":0.0017,"nx":28,"ny":28,"refTime":"2026-02-07T09:00:00:Z","depth":"4","parameterNumber":2,"parameterNumberName":"U-component_of_CURRENTS"},"data":[0,0,0,0,0,0,0,0,0,0,0,0,0,0,0,0,0,0,0,0,0,0,0,0,0,0,0,0,0,0,0,0,0,0,0,0,0,0,0,0,0,0,0,0,0,0,0,0,0,0,0,0,0,0,0,0,0,0,-0.0587,-0.0588,0,-0.0634,-0.0635,-0.0636,-0.072,-0.0722,-0.0723,-0.0725,-0.0892,-0.0895,-0.0898,0,0,0,0,0,0,0,0,0,0,0,0,0,-0.0546,-0.0547,-0.0587,-0.0588,-0.0588,-0.0634,-0.0635,-0.0636,-0.072,-0.0722,-0.0724,-0.0726,-0.0892,-0.0895,-0.0899,0,0,0,0,0,0,0,0,0,0,0,0,0,-0.0576,-0.0547,-0.0587,-0.0635,-0.064,-0.0634,-0.0635,-0.0636,-0.072,-0.0722,-0.0724,-0.0726,-0.089,-0.0895,-0.0899,-0.088,0,0,-0.0913,-0.0915,0,0,0,0,0,0,0,0,-0.0575,-0.0578,-0.0628,-0.0632,-0.0637,-0.0673,-0.0682,-0.0723,-0.0719,-0.069,-0.0725,-0.0728,-0.0828,-0.0838,-0.0841,-0.0888,-0.0895,-0.0913,-0.0916,-0.0918,-0.0919,0,0,0,0,0,0,0,-0.0572,-0.0576,-0.0607,-0.0628,-0.0634,-0.0646,-0.0654,-0.069,-0.0748,-0.0693,-0.0699,-0.0702,-0.0832,-0.0836,-0.0846,-0.0898,-0.0913,-0.0917,-0.092,-0.0922,-0.1075,-0.1076,0,0,0,0,0,0,-0.0564,-0.0574,-0.0605,-0.0608,-0.061,-0.0645,-0.0653,-0.066,-0.0745,-0.076,-0.07,-0.0706,-0.0827,-0.084,-0.0852,-0.103,-0.0918,-0.0922,-0.0925,-0.1074,-0.1075,-0.1077,0,0,0,0,0,0,-0.0563,-0.0566,-0.0603,-0.0591,-0.0597,-0.0644,-0.065,-0.066,-0.07,-0.075,-0.0767,-0.0735,-0.083,-0.0846,-0.0893,-0.103,-0.0924,-0.0928,-0.1072,-0.1074,-0.1076,-0.1261,0,0,0,0,0,0,-0.0561,-0.0565,-0.0582,-0.0591,-0.0597,-0.0636,-0.0648,-0.0659,-0.0695,-0.0705,-0.0784,-0.08,-0.0833,-0.0886,-0.0897,-0.1034,-0.0932,-0.107,-0.1073,-0.1076,-0.1253,-0.1269,-0.1283,0,0,0,0,0,-0.056,-0.0563,-0.0582,-0.0587,-0.0614,-0.0637,-0.0643,-0.0683,-0.0695,-0.0725,-0.0752,-0.0799,-0.0913,-0.0888,-0.0902,-0.1045,-0.1069,-0.1072,-0.1075,-0.1247,-0.1266,-0.1283,0,0,0,0,0,0,-0.0547,-0.0572,-0.0594,-0.0605,-0.0639,-0.0653,-0.0673,-0.0693,-0.0735,-0.0752,-0.079,-0.0808,-0.0914,-0.0912,-0.0885,-0.1085,-0.101,-0.1016,-0.1136,-0.1154,-0.1168,-0.1124,-0.0936,0,0,0,0,0,-0.0551,-0.0569,-0.0596,-0.061,-0.0624,-0.0652,-0.0669,-0.0703,-0.0729,-0.0752,-0.082,-0.0872,-0.0928,-0.0982,-0.1025,-0.1114,-0.1084,-0.1215,-0.123,-0.1243,-0.1209,-0.1307,-0.133,-0.1087,-0.1087,-0.1087,0,0,-0.0555,-0.0564,-0.0581,-0.0611,-0.0632,-0.0654,-0.067,-0.0709,-0.0732,-0.0762,-0.0842,-0.0924,-0.0951,-0.1069,-0.1121,-0.1097,-0.1285,-0.1247,-0.1259,-0.1216,-0.1313,-0.1337,-0.1359,-0.1089,-0.1089,-0.1088,0,0,-0.0544,-0.0576,-0.0585,-0.0613,-0.0655,-0.0675,-0.0692,-0.0752,-0.0788,-0.0852,-0.09,-0.1021,-0.111,-0.1184,-0.1215,-0.1312,-0.1348,-0.1385,-0.1458,-0.1558,-0.158,-0.1598,-0.1553,-0.1567,-0.1412,-0.1413,-0.1413,0,-0.0554,-0.0557,-0.0595,-0.0604,-0.0632,-0.0684,-0.0707,-0.0731,-0.0813,-0.0865,-0.0895,-0.1086,-0.1147,-0.1273,-0.1346,-0.1356,-0.1378,-0.1408,-0.1583,-0.1601,-0.1617,-0.1567,-0.1579,-0.1422,-0.1421,-0.142,-0.1419,0,-0.0537,-0.056,-0.0564,-0.0599,-0.0641,-0.0671,-0.0716,-0.0762,-0.0831,-0.0918,-0.1079,-0.117,-0.1292,-0.1384,-0.1404,-0.1593,-0.1555,-0.1587,-0.1552,-0.1654,-0.1591,-0.1602,-0.1435,-0.1432,-0.1429,-0.1427,0,0,-0.0519,-0.0549,-0.0555,-0.0581,-0.0648,-0.0679,-0.07,-0.0777,-0.0812,-0.0981,-0.1065,-0.1265,-0.1404,-0.1438,-0.1545,-0.1667,-0.1821,-0.1716,-0.1717,-0.1687,-0.1978,-0.1677,-0.1657,-0.195,-0.1954,-0.1957,-0.1875,0,-0.0502,-0.0507,-0.054,-0.0585,-0.0607,-0.0659,-0.0687,-0.0779,-0.086,-0.0961,-0.1127,-0.1289,-0.1396,-0.1524,-0.1659,-0.1801,-0.1864,-0.1833,-0.1861,-0.1857,-0.1598,-0.1665,-0.1969,-0.1882,-0.1884,-0.1886,-0.1887,0,-0.0487,-0.0489,-0.0515,-0.0584,-0.0604,-0.0641,-0.0705,-0.0762,-0.0891,-0.098,-0.1169,-0.1301,-0.1531,-0.1581,-0.1833,-0.1842,-0.1901,-0.1974,-0.1974,-0.1625,-0.1576,-0.1763,-0.1903,-0.1902,-0.1901,-0.19,-0.1899,0,-0.0455,-0.0492,-0.0512,-0.0535,-0.0605,-0.0622,-0.0691,-0.08,-0.0849,-0.1041,-0.1111,-0.1375,-0.1513,-0.169,-0.1814,-0.19,-0.1981,-0.2099,-0.1827,-0.1801,-0.2019,-0.2,-0.2187,-0.2187,-0.2187,-0.2187,-0.2188,0,-0.0432,-0.0457,-0.0495,-0.05,-0.0546,-0.0642,-0.0705,-0.0779,-0.0885,-0.0977,-0.1181,-0.1201,-0.1578,-0.1641,-0.1773,-0.1766,-0.1939,-0.1798,-0.1778,-0.2086,-0.2077,-0.2022,-0.2004,-0.2184,-0.2185,-0.2185,-0.2186,0,-0.042,-0.0431,-0.0457,-0.0506,-0.053,-0.0593,-0.0692,-0.0727,-0.0862,-0.0937,-0.1022,-0.1156,-0.1253,-0.1413,-0.1628,-0.1662,-0.1711,-0.1623,-0.1792,-0.1788,-0.148,-0.1473,-0.1411,-0.14,-0.1391,-0.1383,-0.1376,0,-0.0407,-0.0414,-0.0453,-0.0452,-0.0475,-0.0555,-0.0592,-0.0725,-0.0742,-0.0842,-0.084,-0.0928,-0.1006,-0.1014,-0.1206,-0.1312,-0.1322,-0.1348,-0.157,-0.1421,-0.141,-0.1417,-0.1422,-0.1362,-0.1359,-0.1357,-0.1355,0,-0.0385,-0.0405,-0.0422,-0.0409,-0.0431,-0.0461,-0.0509,-0.05,-0.0643,-0.0732,-0.0691,-0.0734,-0.0721,-0.0851,-0.0867,-0.0963,-0.1391,-0.1255,-0.1281,-0.149,-0.1362,-0.1361,-0.1377,-0.1322,-0.1327,-0.133,-0.1332,0,-0.0381,-0.0382,-0.0378,-0.0387,-0.0385,-0.0355,-0.0398,-0.0394,-0.0439,-0.0554,-0.0482,-0.0548,-0.0648,-0.064,-0.0646,-0.0711,-0.0815,-0.0957,-0.1001,-0.1038,-0.096,-0.0745,-0.0473,0,0,0,0,0,-0.0373,-0.036,-0.0342,-0.0317,-0.0302,-0.0297,-0.0323,-0.0359,-0.044,-0.0404,-0.0465,-0.0435,-0.0465,-0.0438,-0.0453,-0.0487,-0.0812,-0.0503,-0.0997,-0.1145,-0.1182,-0.1128,0,0,0,0,0,0,-0.0357,-0.0347,-0.0333,-0.0256,-0.0213,-0.019,-0.0203,-0.0259,-0.0222,-0.0313,-0.0296,-0.041,-0.0398,-0.0449,-0.0436,-0.0448,-0.076,-0.0543,-0.0542,-0.1124,-0.1157,-0.1187,-0.1145,0,0,0,0,0]},{"header":{"parameterUnit":"m.s-1","parameterCategory":2,"la1":30.2991,"la2":30.254,"lo1":-89.0895,"lo2":-89.0444,"dy":0.0017,"dx":0.0017,"nx":28,"ny":28,"refTime":"2026-02-07T09:00:00:Z","depth":"4","parameterNumber":3,"parameterNumberName":"V-component_of_CURRENTS"},"data":[0,0,0,0,0,0,0,0,0,0,0,0,0,0,0,0,0,0,0,0,0,0,0,0,0,0,0,0,0,0,0,0,0,0,0,0,0,0,0,0,0,0,0,0,0,0,0,0,0,0,0,0,0,0,0,0,0,0,-0.0383,-0.0383,0,-0.0431,-0.0432,-0.0433,-0.0416,-0.0415,-0.0414,-0.0412,-0.0393,-0.0394,-0.0394,0,0,0,0,0,0,0,0,0,0,0,0,0,-0.0324,-0.0325,-0.0383,-0.0383,-0.0384,-0.0431,-0.0432,-0.0433,-0.0416,-0.0415,-0.0413,-0.0412,-0.0393,-0.0393,-0.0394,0,0,0,0,0,0,0,0,0,0,0,0,0,-0.0361,-0.0325,-0.0383,-0.0379,-0.0379,-0.0431,-0.0432,-0.0433,-0.0417,-0.0415,-0.0413,-0.0411,-0.0392,-0.0393,-0.0394,-0.044,0,0,-0.0398,-0.0398,0,0,0,0,0,0,0,0,-0.0359,-0.0363,-0.038,-0.038,-0.038,-0.0414,-0.0404,-0.0431,-0.0417,-0.0405,-0.0412,-0.041,-0.0393,-0.0394,-0.0412,-0.0439,-0.0438,-0.0398,-0.0398,-0.0399,-0.0399,0,0,0,0,0,0,0,-0.0356,-0.0361,-0.0405,-0.038,-0.038,-0.0391,-0.0394,-0.041,-0.041,-0.0406,-0.0404,-0.0407,-0.0393,-0.0411,-0.0411,-0.0438,-0.0398,-0.0399,-0.0399,-0.04,-0.0504,-0.0506,0,0,0,0,0,0,-0.0345,-0.0359,-0.0403,-0.0406,-0.0361,-0.0394,-0.0397,-0.0407,-0.0412,-0.041,-0.0408,-0.0406,-0.0411,-0.041,-0.041,-0.0453,-0.0399,-0.04,-0.04,-0.0502,-0.0505,-0.0507,0,0,0,0,0,0,-0.0344,-0.0349,-0.0401,-0.0381,-0.0388,-0.0396,-0.0408,-0.0409,-0.0427,-0.0413,-0.0411,-0.0425,-0.0409,-0.0409,-0.0445,-0.0452,-0.04,-0.0401,-0.05,-0.0503,-0.0506,-0.0545,0,0,0,0,0,0,-0.0342,-0.0349,-0.0365,-0.0381,-0.0388,-0.0443,-0.0409,-0.0411,-0.043,-0.0427,-0.0427,-0.0423,-0.0407,-0.0444,-0.0446,-0.0452,-0.0402,-0.0497,-0.0501,-0.0505,-0.0541,-0.0549,-0.0556,0,0,0,0,0,-0.034,-0.037,-0.0365,-0.0371,-0.0406,-0.0444,-0.0451,-0.0451,-0.0433,-0.0458,-0.0462,-0.0423,-0.047,-0.0448,-0.045,-0.0456,-0.0495,-0.05,-0.0505,-0.0537,-0.0547,-0.0556,0,0,0,0,0,0,-0.0359,-0.0371,-0.0366,-0.04,-0.0423,-0.044,-0.0466,-0.0462,-0.0488,-0.0485,-0.0462,-0.0461,-0.0498,-0.0485,-0.046,-0.0502,-0.0472,-0.0478,-0.0497,-0.0506,-0.0513,-0.0505,-0.0403,0,0,0,0,0,-0.0369,-0.0392,-0.0405,-0.0437,-0.0448,-0.0459,-0.0477,-0.048,-0.0497,-0.0506,-0.0509,-0.0512,-0.0524,-0.052,-0.0542,-0.0565,-0.0529,-0.057,-0.0578,-0.0584,-0.0583,-0.0533,-0.0534,-0.0523,-0.0523,-0.0523,0,0,-0.0385,-0.0396,-0.041,-0.0442,-0.0459,-0.0493,-0.0466,-0.0504,-0.053,-0.0501,-0.0549,-0.0553,-0.0545,-0.0576,-0.0588,-0.0558,-0.0576,-0.059,-0.0595,-0.059,-0.0538,-0.0538,-0.0538,-0.0526,-0.0526,-0.0525,0,0,-0.0424,-0.044,-0.0467,-0.0491,-0.052,-0.0534,-0.0545,-0.0574,-0.0584,-0.0637,-0.0615,-0.0637,-0.0658,-0.0651,-0.0646,-0.0715,-0.0633,-0.0703,-0.0712,-0.0664,-0.0663,-0.0662,-0.0634,-0.063,-0.0686,-0.0686,-0.0686,0,-0.044,-0.047,-0.0485,-0.0517,-0.0541,-0.0551,-0.0588,-0.0613,-0.0653,-0.0665,-0.0661,-0.0699,-0.07,-0.0705,-0.0719,-0.073,-0.0678,-0.067,-0.0669,-0.0667,-0.0664,-0.0636,-0.0631,-0.0689,-0.0689,-0.0688,-0.0688,0,-0.0486,-0.0519,-0.0542,-0.0581,-0.0621,-0.0657,-0.0686,-0.0713,-0.0728,-0.0751,-0.0786,-0.0794,-0.0803,-0.0801,-0.0775,-0.0757,-0.0719,-0.0695,-0.0633,-0.0667,-0.0637,-0.0631,-0.0692,-0.0691,-0.0691,-0.069,0,0,-0.0487,-0.0555,-0.0563,-0.0591,-0.0652,-0.0688,-0.0733,-0.0773,-0.0789,-0.0835,-0.0857,-0.0882,-0.0874,-0.0868,-0.0834,-0.078,-0.0735,-0.0711,-0.0707,-0.0663,-0.0614,-0.0613,-0.0606,-0.0673,-0.0672,-0.0671,-0.0603,0,-0.0509,-0.0568,-0.0607,-0.0682,-0.0714,-0.0746,-0.0785,-0.083,-0.086,-0.0893,-0.0896,-0.0927,-0.0899,-0.0888,-0.0839,-0.0765,-0.0716,-0.0756,-0.0606,-0.0603,-0.0579,-0.0598,-0.0668,-0.0598,-0.0597,-0.0596,-0.0595,0,-0.0534,-0.0566,-0.0631,-0.0707,-0.0726,-0.0781,-0.0831,-0.0878,-0.092,-0.0936,-0.0958,-0.0961,-0.0937,-0.0898,-0.0786,-0.0793,-0.071,-0.0645,-0.064,-0.0617,-0.059,-0.0556,-0.0583,-0.0584,-0.0585,-0.0586,-0.0586,0,-0.0509,-0.0591,-0.064,-0.0669,-0.0751,-0.0787,-0.0841,-0.0894,-0.0917,-0.0973,-0.0981,-0.0974,-0.0959,-0.086,-0.0763,-0.0745,-0.062,-0.0592,-0.0522,-0.0522,-0.0521,-0.0523,-0.0502,-0.0503,-0.0503,-0.0503,-0.0503,0,-0.0509,-0.0556,-0.0634,-0.0661,-0.0721,-0.0797,-0.0855,-0.0897,-0.0941,-0.0965,-0.1008,-0.0969,-0.093,-0.0864,-0.0766,-0.0639,-0.0633,-0.0528,-0.05,-0.0546,-0.0551,-0.0517,-0.052,-0.05,-0.0501,-0.0501,-0.0502,0,-0.0493,-0.0536,-0.0598,-0.0681,-0.0716,-0.0771,-0.0864,-0.0892,-0.0938,-0.0961,-0.0974,-0.0957,-0.0869,-0.0838,-0.0692,-0.0644,-0.053,-0.0483,-0.0563,-0.054,-0.046,-0.0466,-0.0393,-0.0392,-0.0392,-0.0391,-0.0391,0,-0.0494,-0.0516,-0.0609,-0.0639,-0.0689,-0.0767,-0.0812,-0.0888,-0.0892,-0.091,-0.0889,-0.0857,-0.0836,-0.0664,-0.0612,-0.0507,-0.0475,-0.0452,-0.0434,-0.0467,-0.0446,-0.0453,-0.046,-0.039,-0.039,-0.039,-0.039,0,-0.0483,-0.0515,-0.0563,-0.0608,-0.0672,-0.0738,-0.0794,-0.0778,-0.0838,-0.0875,-0.0798,-0.0765,-0.0686,-0.0603,-0.0571,-0.0465,-0.0494,-0.0445,-0.0444,-0.0427,-0.0462,-0.0444,-0.0451,-0.0388,-0.0388,-0.0388,-0.0388,0,-0.0478,-0.0498,-0.0538,-0.0585,-0.0654,-0.0691,-0.0729,-0.0723,-0.0738,-0.075,-0.0693,-0.0669,-0.0659,-0.0572,-0.0496,-0.0466,-0.0424,-0.0405,-0.0405,-0.0407,-0.0443,-0.0491,-0.0399,0,0,0,0,0,-0.0468,-0.0476,-0.0506,-0.0557,-0.0618,-0.0662,-0.0702,-0.072,-0.074,-0.0686,-0.0697,-0.0623,-0.0558,-0.0499,-0.0459,-0.0461,-0.0419,-0.0412,-0.0398,-0.0376,-0.0379,-0.042,0,0,0,0,0,0,-0.0456,-0.0481,-0.0489,-0.0521,-0.0551,-0.0621,-0.0656,-0.0676,-0.0614,-0.0629,-0.0571,-0.0606,-0.0514,-0.0585,-0.0455,-0.0446,-0.0428,-0.0393,-0.0392,-0.0375,-0.0377,-0.0379,-0.0422,0,0,0,0,0]}]]